�������l�o���
Date,Time,MP-1(��Sv/h),MP-2(��Sv/h),MP-3(��Sv/h),MP-4(��Sv/h),MP-5(��Sv/h),MP-6(��Sv/h),MP-7(��Sv/h),MP-8(��Sv/h),����,����(m/s),���J
2016/11/15,00:00,1.114,1.893,1.272,2.122,1.479,0.582,1.062,0.979,��쐼,8.9,��
2016/11/15,00:10,1.115,1.891,1.273,2.120,1.479,0.583,1.061,0.977,��,8.9,��
2016/11/15,00:20,1.114,1.893,1.273,2.120,1.479,0.583,1.059,0.977,��,7.5,��
2016/11/15,00:30,1.114,1.888,1.272,2.120,1.477,0.583,1.061,0.978,��,8.1,��
2016/11/15,00:40,1.114,1.890,1.274,2.121,1.475,0.583,1.060,0.977,��,6.8,��
2016/11/15,00:50,1.116,1.890,1.273,2.120,1.475,0.586,1.059,0.977,��쐼,5.9,��
2016/11/15,01:00,1.114,1.892,1.271,2.122,1.480,0.584,1.060,0.978,�쐼,4.4,�L
2016/11/15,01:10,1.115,1.886,1.270,2.118,1.475,0.585,1.059,0.977,�쐼,4.9,�L
2016/11/15,01:20,1.112,1.885,1.271,2.118,1.473,0.585,1.059,0.975,��쐼,4.8,�L
2016/11/15,01:30,1.108,1.883,1.268,2.117,1.473,0.584,1.057,0.977,�쐼,4.4,�L
2016/11/15,01:40,1.106,1.875,1.268,2.114,1.472,0.585,1.058,0.979,��쐼,3.9,�L
2016/11/15,01:50,1.106,1.871,1.267,2.115,1.468,0.584,1.055,0.976,��쐼,4.0,�L
2016/11/15,02:00,1.104,1.869,1.266,2.114,1.464,0.582,1.055,0.976,��쐼,4.1,�L
2016/11/15,02:10,1.104,1.864,1.262,2.108,1.468,0.582,1.055,0.976,��쐼,3.0,��
2016/11/15,02:20,1.104,1.869,1.263,2.110,1.468,0.583,1.056,0.975,��,3.2,�L
2016/11/15,02:30,1.104,1.869,1.264,2.108,1.467,0.583,1.056,0.974,��쓌,2.6,��
2016/11/15,02:40,1.101,1.867,1.264,2.111,1.469,0.584,1.056,0.975,��쓌,3.8,��
2016/11/15,02:50,1.105,1.870,1.264,2.113,1.468,0.583,1.056,0.974,��쓌,3.3,��
2016/11/15,03:00,1.101,1.870,1.263,2.109,1.466,0.583,1.055,0.976,��쓌,2.9,��
2016/11/15,03:10,1.102,1.868,1.264,2.112,1.466,0.583,1.057,0.976,��쓌,3.4,��
2016/11/15,03:20,1.102,1.869,1.263,2.113,1.468,0.584,1.058,0.974,��,3.2,��
2016/11/15,03:30,1.102,1.870,1.264,2.107,1.461,0.584,1.058,0.976,��,3.5,��
2016/11/15,03:40,1.101,1.867,1.263,2.109,1.465,0.583,1.059,0.974,��쐼,3.2,��
2016/11/15,03:50,1.101,1.867,1.262,2.112,1.468,0.582,1.056,0.974,�쐼,3.2,��
2016/11/15,04:00,1.103,1.869,1.261,2.108,1.466,0.583,1.058,0.976,���쐼,3.7,��
2016/11/15,04:10,1.101,1.865,1.262,2.107,1.466,0.581,1.057,0.974,��,4.4,��
2016/11/15,04:20,1.102,1.871,1.261,2.109,1.467,0.584,1.057,0.976,��,2.9,��
2016/11/15,04:30,1.100,1.866,1.262,2.112,1.464,0.582,1.056,0.975,�k�k��,2.5,��
2016/11/15,04:40,1.102,1.867,1.262,2.112,1.467,0.583,1.057,0.976,�k,3.0,��
2016/11/15,04:50,1.099,1.870,1.263,2.111,1.465,0.582,1.057,0.976,�k�k��,3.5,��
2016/11/15,05:00,1.103,1.870,1.263,2.111,1.466,0.582,1.057,0.974,�k�k��,3.4,��
2016/11/15,05:10,1.104,1.866,1.263,2.113,1.467,0.582,1.058,0.975,�k�k��,2.3,��
2016/11/15,05:20,1.101,1.868,1.262,2.111,1.466,0.582,1.057,0.975,�k�k��,2.3,��
2016/11/15,05:30,1.102,1.870,1.262,2.109,1.465,0.582,1.057,0.977,�k�k��,2.6,��
2016/11/15,05:40,1.102,1.868,1.260,2.111,1.467,0.580,1.056,0.974,�k,3.3,��
2016/11/15,05:50,1.102,1.867,1.260,2.111,1.466,0.581,1.057,0.975,�k,3.8,��
2016/11/15,06:00,1.101,1.867,1.261,2.111,1.465,0.581,1.055,0.974,�k,2.5,��
2016/11/15,06:10,1.103,1.869,1.263,2.114,1.465,0.582,1.057,0.976,�k�k��,0.9,��
2016/11/15,06:20,1.102,1.870,1.263,2.108,1.467,0.581,1.057,0.976,�k�k��,1.1,��
2016/11/15,06:30,1.104,1.871,1.261,2.108,1.465,0.581,1.058,0.975,�k�k��,1.1,��
2016/11/15,06:40,1.101,1.871,1.259,2.107,1.465,0.582,1.058,0.976,�k,1.1,��
2016/11/15,06:50,1.100,1.868,1.259,2.108,1.465,0.582,1.056,0.974,�k��,0.8,��
2016/11/15,07:00,1.100,1.867,1.260,2.106,1.467,0.580,1.057,0.974,�k�k��,1.1,��
2016/11/15,07:10,1.099,1.870,1.259,2.109,1.461,0.582,1.057,0.975,�k�k��,1.7,��
2016/11/15,07:20,1.099,1.868,1.261,2.111,1.467,0.583,1.058,0.974,�k�k��,2.3,��
2016/11/15,07:30,1.102,1.871,1.263,2.109,1.465,0.581,1.057,0.975,�k�k��,1.4,��
2016/11/15,07:40,1.102,1.868,1.260,2.111,1.465,0.581,1.058,0.976,�k��,1.1,��
2016/11/15,07:50,1.100,1.871,1.259,2.111,1.464,0.582,1.059,0.974,���쐼,1.2,��
2016/11/15,08:00,1.100,1.865,1.257,2.109,1.463,0.582,1.057,0.975,���쐼,0.9,��
2016/11/15,08:10,1.101,1.868,1.259,2.111,1.466,0.583,1.057,0.976,��쐼,1.1,��
2016/11/15,08:20,1.102,1.866,1.262,2.111,1.467,0.583,1.059,0.975,��,2.0,��
2016/11/15,08:30,1.105,1.871,1.260,2.112,1.466,0.582,1.061,0.978,��,1.9,��
2016/11/15,08:40,1.107,1.865,1.263,2.114,1.469,0.582,1.061,0.977,��쓌,1.5,��
2016/11/15,08:50,1.105,1.871,1.263,2.113,1.468,0.582,1.058,0.977,�쓌,1.5,��
2016/11/15,09:00,1.107,1.873,1.261,2.110,1.470,0.583,1.060,0.977,�쓌,1.7,��
2016/11/15,09:10,1.104,1.874,1.262,2.115,1.472,0.582,1.059,0.976,�쓌,2.0,��
2016/11/15,09:20,1.103,1.871,1.265,2.112,1.471,0.583,1.062,0.976,�쓌,2.0,��
2016/11/15,09:30,1.103,1.865,1.262,2.111,1.466,0.584,1.059,0.976,���쓌,1.9,��
2016/11/15,09:40,1.105,1.853,1.263,2.117,1.468,0.583,1.060,0.978,��,2.2,��
2016/11/15,09:50,1.105,1.855,1.259,2.112,1.469,0.582,1.060,0.977,���쓌,1.2,��
2016/11/15,10:00,1.105,1.860,1.263,2.114,1.472,0.584,1.060,0.977,���쓌,0.8,��
2016/11/15,10:10,1.108,1.866,1.254,2.115,1.471,0.583,1.061,0.979,�k��,1.7,��
2016/11/15,10:20,1.105,1.872,1.266,2.117,1.473,0.583,1.062,0.976,�k��,2.3,��
2016/11/15,10:30,1.107,1.873,1.269,2.116,1.472,0.583,1.060,0.977,�k��,2.6,��
2016/11/15,10:40,1.107,1.870,1.269,2.118,1.476,0.584,1.062,0.976,�k��,2.8,��
2016/11/15,10:50,1.108,1.871,1.268,2.122,1.468,0.582,1.062,0.975,�k��,2.3,��
2016/11/15,11:00,1.106,1.876,1.270,2.117,1.473,0.580,1.062,0.976,��,1.5,��
2016/11/15,11:10,1.107,1.873,1.268,2.121,1.473,0.581,1.061,0.975,���k��,0.9,��
2016/11/15,11:20,1.108,1.876,1.269,2.120,1.475,0.582,1.061,0.975,���k��,1.2,��
2016/11/15,11:30,1.112,1.876,1.266,2.121,1.477,0.583,1.064,0.976,��,1.1,��
2016/11/15,11:40,1.110,1.876,1.268,2.121,1.475,0.582,1.062,0.974,-,CALM,��
2016/11/15,11:50,1.112,1.880,1.264,2.120,1.477,0.582,1.061,0.978,�k��,0.6,��
2016/11/15,12:00,1.114,1.881,1.268,2.120,1.476,0.584,1.061,0.977,���k��,1.7,��
2016/11/15,12:10,1.112,1.879,1.268,2.122,1.479,0.585,1.065,0.977,���쐼,1.7,��
2016/11/15,12:20,1.112,1.883,1.268,2.121,1.478,0.586,1.065,0.975,���k��,1.5,��
2016/11/15,12:30,1.113,1.881,1.270,2.123,1.478,0.586,1.065,0.977,��,6.3,��
2016/11/15,12:40,1.113,1.878,1.266,2.124,1.479,0.584,1.065,0.976,���k��,5.9,��
2016/11/15,12:50,1.115,1.880,1.273,2.123,1.478,0.585,1.063,0.977,���k��,6.6,��
2016/11/15,13:00,1.118,1.880,1.270,2.126,1.481,0.585,1.063,0.977,��,5.3,��
2016/11/15,13:10,1.116,1.877,1.271,2.125,1.480,0.585,1.063,0.977,��,5.8,��
2016/11/15,13:20,1.115,1.880,1.271,2.125,1.481,0.584,1.065,0.976,��,6.0,��
2016/11/15,13:30,1.115,1.881,1.270,2.124,1.483,0.584,1.064,0.978,���k��,4.6,��
2016/11/15,13:40,1.115,1.880,1.269,2.127,1.481,0.584,1.066,0.978,���k��,4.9,��
2016/11/15,13:50,1.110,1.882,1.270,2.126,1.481,0.584,1.067,0.978,��,4.8,��
2016/11/15,14:00,1.114,1.881,1.273,2.128,1.484,0.586,1.065,0.978,��,4.0,��
2016/11/15,14:10,1.116,1.881,1.272,2.128,1.485,0.584,1.065,0.978,��,3.3,��
2016/11/15,14:20,1.113,1.883,1.274,2.129,1.481,0.584,1.063,0.976,���k��,3.9,��
2016/11/15,14:30,1.114,1.886,1.273,2.129,1.477,0.585,1.065,0.978,��,5.0,��
2016/11/15,14:40,1.115,1.883,1.272,2.131,1.479,0.585,1.067,0.977,���k��,6.7,��
2016/11/15,14:50,1.117,1.883,1.274,2.130,1.483,0.586,1.065,0.978,��,4.6,��
2016/11/15,15:00,1.115,1.885,1.275,2.125,1.483,0.585,1.064,0.977,���k��,3.4,��
2016/11/15,15:10,1.115,1.887,1.276,2.129,1.484,0.585,1.063,0.978,�k��,5.3,��
2016/11/15,15:20,1.117,1.886,1.276,2.132,1.483,0.586,1.064,0.976,���k��,6.3,��
2016/11/15,15:30,1.115,1.885,1.273,2.132,1.481,0.584,1.064,0.978,��,4.0,��
2016/11/15,15:40,1.118,1.884,1.276,2.129,1.481,0.587,1.065,0.979,���k��,3.9,��
2016/11/15,15:50,1.116,1.889,1.276,2.129,1.485,0.586,1.063,0.978,�k��,3.7,��
2016/11/15,16:00,1.116,1.890,1.273,2.128,1.483,0.588,1.063,0.980,�k�k��,4.4,��
2016/11/15,16:10,1.116,1.886,1.276,2.129,1.483,0.586,1.062,0.979,�k,3.4,��
2016/11/15,16:20,1.114,1.892,1.276,2.127,1.481,0.586,1.064,0.979,�k,4.0,��
2016/11/15,16:30,1.114,1.890,1.275,2.129,1.483,0.586,1.064,0.978,�k�k��,3.9,��
2016/11/15,16:40,1.116,1.886,1.277,2.127,1.486,0.585,1.064,0.981,�k��,5.1,��
2016/11/15,16:50,1.116,1.887,1.277,2.129,1.485,0.586,1.061,0.980,���k��,8.0,��
2016/11/15,17:00,1.116,1.890,1.278,2.129,1.485,0.587,1.063,0.981,���k��,9.3,��
2016/11/15,17:10,1.117,1.891,1.279,2.127,1.485,0.586,1.062,0.980,���k��,8.6,��
2016/11/15,17:20,1.117,1.891,1.277,2.130,1.485,0.586,1.062,0.981,���k��,8.6,��
2016/11/15,17:30,1.115,1.891,1.277,2.129,1.485,0.584,1.061,0.983,�k��,10.4,��
2016/11/15,17:40,1.117,1.892,1.275,2.128,1.485,0.586,1.061,0.979,�k��,9.1,��
2016/11/15,17:50,1.117,1.889,1.276,2.131,1.485,0.585,1.063,0.978,�k��,10.2,��
2016/11/15,18:00,1.118,1.889,1.278,2.129,1.485,0.586,1.062,0.979,�k��,8.9,��
2016/11/15,18:10,1.114,1.889,1.278,2.128,1.484,0.585,1.062,0.978,�k��,7.9,��
2016/11/15,18:20,1.114,1.889,1.277,2.129,1.482,0.584,1.062,0.981,�k��,7.3,��
2016/11/15,18:30,1.115,1.890,1.277,2.129,1.485,0.585,1.061,0.980,�k��,5.9,��
2016/11/15,18:40,1.114,1.890,1.276,2.130,1.486,0.586,1.061,0.980,�k��,7.4,��
2016/11/15,18:50,1.117,1.888,1.278,2.131,1.486,0.584,1.062,0.979,�k��,6.5,��
2016/11/15,19:00,1.114,1.890,1.277,2.130,1.485,0.585,1.061,0.981,�k��,8.8,��
2016/11/15,19:10,1.113,1.891,1.277,2.131,1.486,0.585,1.061,0.981,�k��,7.1,��
2016/11/15,19:20,1.114,1.888,1.277,2.128,1.484,0.584,1.062,0.978,�k��,7.0,��
2016/11/15,19:30,1.113,1.890,1.275,2.129,1.483,0.584,1.061,0.980,�k��,9.7,��
2016/11/15,19:40,1.113,1.892,1.276,2.127,1.484,0.582,1.062,0.979,�k��,8.8,��
2016/11/15,19:50,1.113,1.892,1.275,2.129,1.485,0.584,1.059,0.979,�k��,7.5,��
2016/11/15,20:00,1.112,1.889,1.275,2.128,1.485,0.585,1.063,0.978,�k��,7.8,��
2016/11/15,20:10,1.112,1.892,1.273,2.130,1.483,0.584,1.061,0.980,�k��,7.5,��
2016/11/15,20:20,1.113,1.893,1.276,2.127,1.483,0.584,1.062,0.980,�k��,8.8,��
2016/11/15,20:30,1.114,1.890,1.275,2.129,1.483,0.583,1.061,0.980,�k��,9.1,��
2016/11/15,20:40,1.115,1.893,1.274,2.127,1.484,0.582,1.062,0.980,�k��,8.0,��
2016/11/15,20:50,1.112,1.891,1.275,2.132,1.484,0.583,1.061,0.978,�k��,8.4,��
2016/11/15,21:00,1.113,1.892,1.274,2.131,1.483,0.583,1.061,0.979,�k��,7.4,��
2016/11/15,21:10,1.113,1.890,1.271,2.131,1.484,0.583,1.062,0.980,�k��,6.8,��
2016/11/15,21:20,1.112,1.890,1.274,2.132,1.481,0.584,1.062,0.977,�k�k��,6.3,��
2016/11/15,21:30,1.113,1.890,1.275,2.128,1.482,0.584,1.063,0.978,�k�k��,6.3,��
2016/11/15,21:40,1.114,1.888,1.274,2.134,1.484,0.584,1.063,0.978,�k�k��,6.1,��
2016/11/15,21:50,1.110,1.889,1.272,2.127,1.482,0.584,1.063,0.979,�k�k��,6.2,��
2016/11/15,22:00,1.112,1.888,1.275,2.127,1.484,0.583,1.063,0.978,�k�k��,6.1,��
2016/11/15,22:10,1.111,1.889,1.273,2.129,1.484,0.584,1.062,0.978,�k�k��,6.3,��
2016/11/15,22:20,1.109,1.891,1.276,2.128,1.485,0.581,1.062,0.979,�k�k��,5.9,��
2016/11/15,22:30,1.112,1.888,1.275,2.129,1.482,0.582,1.062,0.978,�k�k��,5.3,��
2016/11/15,22:40,1.112,1.887,1.276,2.131,1.483,0.582,1.062,0.978,�k�k��,6.5,��
2016/11/15,22:50,1.112,1.887,1.273,2.129,1.485,0.583,1.062,0.978,�k�k��,7.6,��
2016/11/15,23:00,1.110,1.893,1.274,2.129,1.481,0.581,1.063,0.976,�k�k��,7.0,��
2016/11/15,23:10,1.111,1.887,1.273,2.129,1.484,0.582,1.064,0.978,�k�k��,6.4,��
2016/11/15,23:20,1.110,1.890,1.273,2.132,1.484,0.584,1.062,0.977,�k�k��,6.3,��
2016/11/15,23:30,1.111,1.888,1.273,2.132,1.483,0.583,1.061,0.978,�k��,6.5,��
2016/11/15,23:40,1.112,1.891,1.275,2.132,1.483,0.582,1.063,0.978,�k��,6.2,��
2016/11/15,23:50,1.108,1.887,1.273,2.128,1.481,0.584,1.062,0.976,�k��,6.7,��
